Location: Veytaux
(46.4185°N, 6.9320°E)
Time: 07:55:34
(UTC+00:00)

Cosmos 2084 Rocket - Pass Details

Date: 27 May 2022
Orbit: 497 x 678 km, 62.8° (Epoch: 01 July)

Event Time Altitude Azimuth Distance (km) Brightness Sun altitude
Exits shadow 00:20:09 29° 107° (ESE) 937 4.4 -21.4°
Drops below altitude 10° 00:23:04 10° 59° (ENE) 1,704 6.4 -21.2°
Sets 00:25:23 0° 48° (NE) 2,591 7.7 -21.1°
